GFSCGP_700_rhum_159.txt.gz
RH
49 46 42 37 35 35 33 31 28 25 22 23 23 24 22 21 21 25 25 25 26 41 66 79 17 17 18 24 27 24 27 31 35 37 36 38 40 42 43 43 43 41 34 24
50 46 43 40 40 42 40 38 35 32 29 27 27 27 27 25 23 22 27 27 29 37 59 51 16 15 19 22 26 29 32 38 42 42 40 42 46 48 50 49 47 41 30 22
53 48 49 49 47 46 43 42 39 36 33 31 30 29 28 26 26 25 24 27 28 37 54 47 20 19 19 24 27 31 35 43 48 46 47 50 52 56 57 54 50 36 26 23
63 58 56 54 53 51 44 41 40 40 38 33 29 26 24 23 22 24 25 28 29 34 51 63 24 26 25 24 28 31 35 42 48 53 54 56 58 63 59 54 45 32 26 25
59 59 60 58 54 52 50 50 48 44 41 38 34 31 27 24 23 23 23 26 31 34 46 66 28 27 28 28 28 32 36 44 51 58 56 60 64 64 61 50 37 29 30 32
63 57 56 53 52 53 52 52 52 47 43 40 37 33 28 25 26 26 26 30 33 35 43 59 72 29 27 28 29 33 41 51 57 64 66 70 71 68 58 42 34 36 42 40
59 58 55 58 54 53 52 49 45 44 42 39 30 28 28 29 34 32 38 37 33 39 46 64 71 30 29 29 30 33 42 53 65 73 76 78 74 62 43 40 46 48 46 50
42 44 46 53 56 46 49 48 44 49 42 32 31 28 28 35 34 33 32 32 41 28 28 34 39 32 31 28 28 30 38 62 81 82 82 78 54 47 55 72 68 55 58 66
38 36 36 51 53 52 46 48 45 46 47 54 46 36 33 34 38 50 34 31 30 29 30 32 33 31 31 29 32 38 47 69 86 87 79 58 63 65 62 56 50 57 70 73
47 43 38 38 38 46 50 47 50 58 69 55 41 35 33 54 54 80 67 37 35 34 33 32 30 28 28 29 34 41 46 72 90 80 69 76 78 83 86 68 62 70 66 59
48 46 42 45 42 34 35 45 44 46 62 49 45 37 70 87 82 79 86 80 57 47 40 37 37 36 36 36 36 52 71 86 87 83 86 93 93 93 76 83 76 76 75 77
55 54 48 44 46 51 44 43 39 42 41 42 48 48 62 79 79 83 84 86 84 80 70 61 60 55 57 57 56 64 84 94 95 93 97 98 89 91 95 97 82 77 80 82
80 73 59 49 66 63 54 70 77 68 65 58 56 63 78 79 80 90 83 95 88 86 86 61 62 66 86 86 87 92 99 98 98 97 96 90 96 97 98 93 93 79 77 82
71 77 82 69 94 95 97 94 95 92 94 78 70 82 96 97 89 70 68 80 78 91 87 64 63 73 83 84 95 99 97 97 94 93 88 87 97 99 97 100 100 90 86 80
82 76 74 78 96 98 98 88 86 99 92 96 74 82 65 56 74 63 63 44 50 63 55 73 78 77 89 91 90 95 92 94 80 88 93 98 95 72 96 100 96 81 89 85
90 78 73 65 71 68 76 74 72 67 64 85 75 67 57 62 63 58 61 68 71 68 51 54 87 93 70 95 97 95 80 76 62 82 96 98 100 98 88 98 100 96 99 94
91 90 75 75 53 56 68 51 48 45 46 50 59 52 50 46 46 57 57 60 65 72 69 69 40 50 61 58 59 62 69 70 74 90 91 84 76 99 99 98 96 97 100 96
75 74 80 76 52 70 49 39 39 42 40 38 44 47 44 42 42 46 58 69 71 70 57 43 41 34 30 41 53 56 56 61 60 63 70 70 95 100 100 99 98 98 98 92
68 66 90 85 58 47 40 35 44 52 47 41 41 40 43 43 44 51 64 61 56 50 49 44 36 34 51 47 54 64 66 63 60 66 71 74 84 100 88 98 97 96 93 92
75 77 73 93 68 59 42 38 45 49 52 46 42 38 40 44 48 64 67 62 54 45 43 55 57 65 78 77 74 72 69 67 63 61 64 66 88 94 98 94 98 97 96 89
75 80 88 75 71 52 40 39 53 53 43 46 41 35 41 53 64 69 67 52 51 54 58 61 64 67 77 66 56 48 47 49 58 64 62 63 87 99 99 97 97 95 94 86
74 84 92 81 75 71 46 43 51 54 56 57 43 43 62 63 30 30 29 30 33 38 43 58 68 72 61 59 62 60 60 70 76 79 75 94 98 96 97 96 96 94 93 91
88 91 75 68 62 60 57 52 56 57 56 52 46 52 62 36 11 10 7 7 7 7 8 13 28 22 23 28 42 62 61 81 85 88 79 97 96 98 98 97 96 95 94 94
72 88 85 84 63 57 60 66 58 55 56 49 53 60 56 10 10 7 7 9 11 12 11 20 36 69 65 79 87 76 74 68 73 79 99 97 100 98 97 97 96 95 95 95
89 92 71 70 61 60 60 64 58 61 58 60 60 64 62 16 11 12 16 19 20 18 14 34 62 78 81 94 77 65 63 66 80 100 98 100 97 96 96 96 96 94 94 94
72 80 97 75 67 69 62 66 64 64 63 65 49 56 25 16 17 21 21 23 24 21 19 34 50 52 65 59 66 63 64 72 80 99 95 96 96 96 96 95 96 94 96 96

GFSCGP_700_rhum_162.txt.gz
RH
50 50 49 44 44 41 36 32 30 28 27 25 22 21 21 20 20 19 20 21 25 25 27 40 62 72 61 38 19 17 23 37 36 34 34 36 37 37 38 39 41 43 43 41
53 50 44 42 40 36 34 34 34 31 31 30 29 27 25 24 23 21 21 22 23 24 25 36 45 51 50 42 20 17 18 35 39 37 38 38 40 42 41 44 46 48 47 45
50 47 46 44 42 40 38 39 40 37 35 34 33 32 30 28 26 26 24 22 24 27 25 34 45 49 49 42 22 19 20 31 42 43 38 38 46 48 47 48 51 54 52 48
53 51 49 46 46 47 45 43 41 39 37 36 34 29 28 26 26 24 25 25 23 24 28 32 42 50 53 46 30 21 22 30 43 43 41 50 54 53 53 49 57 58 54 46
59 58 56 56 54 52 50 48 48 46 48 44 41 35 31 27 26 25 23 24 25 25 27 33 41 56 54 53 41 29 26 30 39 44 52 60 61 59 56 58 64 60 53 41
67 61 58 54 54 53 51 51 51 50 50 48 42 37 32 28 27 26 23 23 25 27 29 34 42 49 57 58 52 34 34 35 35 50 57 68 65 63 62 68 67 60 48 35
69 68 62 58 55 53 50 50 48 50 53 52 38 34 33 30 32 32 29 30 31 32 34 43 47 54 61 60 50 34 36 37 34 48 60 71 70 69 72 73 67 53 39 44
46 44 52 53 56 52 49 49 49 60 53 39 39 38 40 40 40 37 39 41 37 33 34 48 58 66 70 57 41 30 32 36 36 56 76 80 78 77 78 70 52 44 66 72
42 36 40 43 46 51 51 47 46 46 46 57 48 41 50 55 54 53 55 37 46 34 30 39 55 37 38 34 31 30 32 38 40 58 75 82 86 84 67 52 51 63 70 69
46 47 44 38 40 49 51 47 46 54 90 59 40 36 49 59 65 77 83 47 36 34 33 32 34 36 33 31 30 28 35 39 40 53 80 91 88 71 57 59 77 84 86 88
51 50 44 41 38 37 33 41 47 48 78 77 62 46 76 76 84 86 83 70 46 38 36 34 35 37 34 32 30 30 38 38 49 61 83 93 76 65 80 93 96 95 93 89
62 65 56 48 48 49 48 43 41 43 55 48 76 74 77 74 75 71 65 78 74 67 56 44 38 42 41 40 38 36 37 48 45 76 90 84 71 91 98 98 95 95 94 95
66 65 58 48 46 51 71 58 61 64 64 60 61 54 72 81 79 84 84 78 72 84 83 68 58 58 64 61 56 56 67 71 86 99 100 86 88 98 96 95 96 97 96 98
56 62 59 55 57 64 81 93 86 82 91 85 71 66 76 91 88 81 72 53 52 60 68 78 77 68 62 61 64 90 99 100 100 100 99 97 98 97 97 97 97 98 90 96
60 69 67 67 68 74 74 77 79 93 74 95 62 73 56 68 59 54 45 65 61 72 72 87 97 94 83 76 71 77 93 92 97 97 97 97 95 96 96 98 97 95 97 98
77 77 72 68 63 70 99 85 74 78 79 88 85 81 30 52 57 56 57 59 58 65 71 79 84 86 93 76 74 81 96 98 97 96 94 95 93 98 93 97 95 97 93 92
95 91 78 76 64 57 66 64 61 55 58 56 58 54 45 53 50 47 60 59 58 60 71 75 73 65 81 81 38 48 56 74 75 82 77 87 95 98 98 94 97 85 97 100
96 97 95 87 70 84 54 51 66 59 42 41 44 39 39 42 40 42 44 48 63 70 70 71 64 50 45 41 38 31 35 52 64 73 79 96 97 94 93 96 98 99 99 97
92 92 84 87 79 63 53 46 42 41 43 41 38 38 37 37 36 42 44 48 58 64 55 50 48 37 30 39 52 56 57 57 67 71 91 88 91 92 93 98 99 99 100 97
81 80 86 94 84 78 51 48 46 40 72 41 50 48 44 40 38 43 50 57 57 56 56 52 43 48 50 54 64 75 75 73 72 69 68 66 69 71 82 88 99 98 97 99
76 81 90 93 82 66 52 42 39 46 43 38 39 41 40 40 40 44 49 51 52 57 32 35 47 56 62 66 66 73 73 66 50 52 56 62 66 65 97 79 95 98 99 97
69 90 89 83 91 82 39 50 55 50 48 47 49 45 41 42 42 47 41 33 21 20 16 11 11 11 10 11 22 58 65 56 58 61 67 77 80 87 97 100 100 99 97 96
79 77 91 88 74 64 54 60 48 46 50 53 56 50 46 53 27 15 13 12 12 9 5 5 5 8 10 9 15 44 40 47 57 72 74 84 90 99 99 98 96 96 97 97
76 61 73 95 84 76 64 65 62 57 52 53 58 52 56 58 53 14 9 8 6 6 8 12 13 11 11 17 46 65 87 100 97 86 83 82 96 100 100 96 98 99 97 95
96 98 97 96 72 80 78 71 81 58 54 54 55 52 55 60 62 26 14 9 10 13 16 18 17 15 16 35 52 60 72 93 88 80 78 90 95 100 97 98 97 96 95 96
58 82 95 96 94 93 92 68 69 61 62 62 62 60 60 68 70 32 17 15 19 22 22 17 17 18 19 39 50 51 67 70 70 73 83 93 98 97 98 97 96 96 96 96

GFSCGP_700_rhum_165.txt.gz
RH
49 53 53 39 41 40 43 42 37 35 33 31 29 26 22 21 21 19 19 18 18 19 22 32 39 44 60 56 54 51 59 39 32 45 43 40 38 37 37 38 38 39 39 41
58 58 49 47 45 47 47 46 42 38 34 32 32 33 31 29 27 23 23 21 20 22 24 33 38 38 40 52 52 47 44 57 34 56 59 54 46 44 43 44 47 45 42 43
61 57 50 49 45 43 42 43 40 38 38 38 37 35 35 34 31 29 27 25 22 20 22 24 30 40 40 35 41 47 48 49 42 53 70 61 50 46 48 50 51 49 47 48
58 56 55 50 50 48 46 42 44 44 44 46 42 48 44 38 33 29 28 28 26 24 23 22 24 33 41 39 42 47 42 48 46 42 53 60 65 62 59 57 56 54 53 54
57 57 55 55 55 52 52 52 53 49 50 54 53 48 44 36 34 28 28 26 26 26 24 23 24 25 31 38 37 43 51 57 48 35 38 48 68 68 63 62 61 59 60 61
80 74 70 60 59 62 58 56 57 55 52 58 55 49 41 35 36 34 30 28 25 26 25 24 27 29 31 36 44 52 58 61 57 44 47 66 71 66 65 67 67 66 65 66
79 79 74 65 62 61 58 52 57 62 62 68 45 47 43 42 37 34 29 35 34 30 26 26 28 30 46 59 62 54 56 63 58 45 45 60 65 66 70 72 72 72 70 62
77 66 53 48 57 64 61 60 58 84 75 56 52 55 51 50 44 39 34 39 37 34 35 42 56 65 75 69 67 67 64 59 34 34 37 42 46 55 69 77 79 78 58 48
54 47 44 48 61 48 55 62 69 52 52 60 56 58 55 54 58 57 57 49 44 45 44 60 76 71 70 49 43 43 40 36 34 33 35 42 46 54 77 84 85 72 51 47
54 52 49 46 45 44 54 69 69 85 99 95 61 53 71 70 72 65 62 59 56 60 71 61 59 57 56 49 38 38 42 44 38 35 39 45 56 69 87 92 84 60 54 56
52 49 50 48 48 38 49 69 69 77 96 99 96 78 86 79 88 79 70 65 58 48 43 59 50 52 48 42 38 37 39 36 37 39 49 58 73 91 97 93 67 60 64 93
54 55 60 50 48 49 53 50 51 53 72 76 71 81 76 75 85 82 72 68 59 51 53 56 58 54 51 54 47 39 38 42 48 58 74 79 98 100 99 83 60 63 79 98
68 67 64 55 49 49 63 59 61 63 69 73 76 87 82 81 81 76 65 66 72 66 52 52 53 57 60 57 54 53 51 55 54 60 73 84 99 99 96 73 76 96 98 98
60 74 73 63 52 49 50 56 60 63 91 93 79 75 96 89 86 78 75 74 80 61 41 52 80 84 77 69 71 71 66 79 89 93 99 97 99 100 97 97 98 96 98 97
66 63 53 51 54 56 54 47 47 67 67 87 62 79 60 63 59 52 50 46 46 35 38 57 73 90 96 94 85 85 84 85 88 94 97 98 98 97 97 97 98 95 98 97
78 71 57 50 58 68 66 62 57 61 55 74 69 64 43 37 47 45 42 51 54 57 58 63 69 77 82 79 72 77 71 58 63 60 63 62 83 95 97 96 98 96 98 98
92 84 75 75 51 71 72 53 62 54 56 61 72 31 34 49 44 44 47 49 54 57 58 60 68 74 70 66 65 55 45 46 42 41 59 83 98 87 89 94 96 96 97 92
95 90 99 86 80 93 52 37 36 59 50 67 61 47 49 47 45 39 53 52 47 55 64 68 72 76 73 60 50 48 43 48 46 42 63 85 84 85 80 92 78 90 87 97
90 96 99 95 98 69 56 32 44 50 42 43 44 51 44 43 37 38 41 44 48 51 56 66 67 54 47 38 29 29 36 50 55 62 67 73 82 85 84 88 100 100 98 99
80 98 99 98 92 87 51 33 40 51 65 34 48 44 43 38 39 40 39 41 44 49 51 51 44 38 27 38 45 44 45 62 70 76 74 63 66 76 80 84 100 99 98 100
94 81 97 98 95 86 43 49 53 64 46 41 42 42 38 43 45 39 39 39 43 47 46 33 18 18 19 18 17 8 16 36 63 68 65 57 59 63 68 68 88 98 100 95
73 92 97 95 90 84 42 60 60 42 50 50 43 46 44 43 42 41 41 41 43 46 34 12 11 7 6 6 7 9 8 15 33 36 53 54 61 73 71 91 100 100 100 99
84 81 85 85 94 75 59 61 62 60 56 52 51 48 42 44 38 38 33 35 43 24 14 9 7 5 8 10 10 9 9 15 40 49 63 79 87 88 99 95 98 98 98 96
76 80 95 81 58 77 63 69 67 65 64 55 56 59 54 55 48 30 23 22 13 10 9 7 5 6 12 14 13 12 18 36 47 66 87 95 93 93 97 100 98 99 96 96
38 53 82 89 90 93 91 80 74 78 77 68 68 82 58 56 52 49 39 30 15 10 8 8 9 12 16 16 16 18 34 46 50 60 88 92 85 85 100 100 99 97 95 95
29 46 90 59 68 94 77 95 96 88 71 65 76 59 55 54 54 56 55 27 26 19 16 18 18 16 15 17 21 25 36 54 55 56 72 74 77 89 98 98 95 96 97 99

GFSCGP_700_rhum_171.txt.gz
RH
36 38 35 32 35 40 49 53 52 49 41 47 41 44 40 34 37 34 18 17 18 20 20 19 20 25 47 37 37 42 43 45 43 46 48 54 61 62 54 44 41 36 31 31
49 48 44 44 51 52 52 54 55 49 43 46 45 44 41 41 40 34 30 18 21 20 20 20 19 19 28 28 30 37 40 47 48 48 47 55 66 73 73 67 56 48 40 36
49 48 53 55 55 57 57 56 54 54 47 48 50 48 44 41 37 36 36 33 29 28 25 22 20 21 21 24 26 30 40 50 54 62 65 61 66 73 64 59 66 66 54 45
60 55 58 61 61 59 58 54 56 55 57 57 56 61 55 52 42 41 37 35 33 30 30 30 28 25 24 22 32 46 56 59 64 66 67 70 75 88 66 67 76 74 62 54
62 63 68 69 65 65 64 61 62 63 60 62 63 59 53 50 49 45 39 36 34 32 32 30 31 31 27 23 34 48 53 60 66 66 76 80 100 78 70 68 78 82 72 62
71 70 67 59 59 60 65 69 70 68 68 70 62 57 53 50 48 44 42 41 38 34 30 29 30 30 30 29 32 45 59 64 68 77 97 100 100 90 68 92 97 95 78 68
76 75 69 72 62 62 68 83 88 80 81 74 55 57 54 57 53 50 47 44 41 37 33 32 30 30 30 31 37 68 77 94 98 100 100 100 100 91 63 68 84 94 90 82
91 88 78 75 69 69 60 67 88 86 86 72 58 60 53 57 60 57 50 49 48 43 39 35 31 37 52 80 100 100 100 100 100 100 98 98 100 92 70 70 74 84 82 85
69 81 56 62 55 72 78 71 69 78 78 90 64 73 71 70 66 64 61 56 54 49 48 42 50 85 100 100 100 98 100 99 98 96 95 96 90 95 75 88 78 79 86 88
63 76 59 52 51 70 82 65 81 91 97 97 92 71 62 72 76 74 68 67 65 65 58 63 73 87 94 99 99 98 98 98 97 68 84 85 94 90 90 80 70 70 93 100
62 71 59 51 58 64 86 75 75 93 88 92 93 73 72 70 71 74 77 72 68 67 61 56 56 74 67 79 76 75 86 88 93 77 96 97 89 88 81 89 88 83 91 94
76 69 77 59 54 48 57 59 59 74 99 98 98 76 72 84 83 79 84 84 71 68 73 58 60 60 60 58 52 59 71 94 90 84 79 80 95 100 93 86 85 86 90 94
66 74 66 66 61 52 50 45 56 67 76 95 96 91 78 78 82 74 74 81 76 71 64 64 65 52 39 42 47 50 69 76 80 83 82 81 79 73 79 94 99 95 96 97
87 86 67 63 57 58 56 54 55 61 65 72 84 74 76 86 80 69 63 71 58 68 58 66 65 45 44 51 58 61 58 63 66 68 66 67 73 68 66 65 63 69 89 92
97 95 93 84 90 86 85 93 91 74 67 86 79 79 66 44 51 53 46 68 61 54 66 58 52 48 49 56 64 53 47 41 45 55 67 47 46 60 72 72 68 68 90 91
98 96 94 96 92 90 94 88 78 74 59 49 46 40 32 26 36 46 44 46 49 50 47 43 46 51 53 50 52 58 57 51 47 48 49 52 52 47 51 80 89 90 95 95
95 96 99 94 78 86 97 65 64 57 47 40 39 24 22 27 34 40 32 31 38 40 43 50 52 47 44 49 55 57 65 62 60 55 52 52 58 58 60 72 90 100 100 99
100 98 94 90 78 92 56 45 39 38 42 45 36 22 26 28 35 39 36 40 46 44 45 47 48 47 45 48 52 56 65 64 58 42 44 42 46 45 45 55 62 71 82 89
89 96 98 95 87 71 65 45 50 54 40 32 30 28 26 31 38 26 30 42 45 37 33 37 47 48 44 47 57 62 57 59 47 35 28 30 26 19 23 34 53 68 79 80
74 87 100 99 94 90 56 55 57 54 61 52 51 40 32 39 44 24 26 39 42 42 41 39 42 46 47 53 59 56 50 30 19 23 16 7 6 8 12 19 33 60 54 52
99 99 97 98 97 88 70 69 67 73 67 66 59 65 61 53 41 33 40 49 52 46 43 40 41 43 52 55 54 48 26 13 15 7 6 7 6 8 10 16 31 62 66 64
91 96 97 100 96 94 90 90 86 93 84 71 66 61 56 52 49 44 39 47 52 50 45 42 39 43 55 56 48 22 8 7 7 7 9 9 9 9 13 27 39 44 58 73
53 53 71 85 75 76 99 98 96 93 92 96 79 64 67 56 48 48 43 42 50 51 51 49 48 54 56 48 30 10 6 4 5 7 9 11 12 14 22 33 48 64 73 85
76 64 68 35 34 39 49 52 81 90 86 89 94 84 82 73 64 56 59 52 49 49 53 55 54 50 38 26 13 7 6 6 10 14 14 14 13 19 37 48 56 96 100 100
41 47 30 52 42 32 18 12 13 17 33 37 69 83 77 82 81 73 64 54 51 48 51 47 41 23 15 12 10 7 8 12 16 18 18 18 19 28 47 58 77 98 99 97
7 8 32 28 11 12 7 12 20 32 12 25 40 80 75 64 72 76 71 64 60 48 50 37 21 9 10 13 12 14 18 18 19 25 42 45 35 41 58 72 84 84 92 96

GFSCGP_700_rhum_174.txt.gz
RH
33 32 26 28 27 28 28 32 37 52 47 49 47 45 42 38 32 35 33 34 32 23 18 18 19 20 30 34 36 35 41 51 46 41 45 65 62 65 64 66 51 44 41 34
42 41 38 36 39 42 43 48 54 50 49 52 51 45 41 39 34 33 33 30 30 25 18 18 20 21 21 26 34 36 32 38 50 47 49 49 58 59 62 72 69 61 57 48
54 52 52 49 49 50 49 52 52 52 56 55 52 48 43 37 37 35 32 28 26 30 27 21 18 21 22 21 28 36 40 52 55 57 57 62 63 70 72 77 85 77 76 74
69 65 60 57 56 54 56 55 55 57 60 60 57 65 55 50 41 36 34 32 30 31 29 26 25 27 28 30 30 32 46 61 60 65 70 75 87 96 98 96 100 96 83 86
67 62 62 60 56 57 57 59 62 64 66 66 70 64 53 44 40 37 38 38 39 35 34 32 31 30 29 30 32 38 42 66 66 71 78 92 97 97 99 100 95 82 93 89
85 72 72 67 65 66 68 68 70 69 74 80 71 61 51 47 47 46 44 42 42 39 36 34 34 32 32 33 34 34 43 57 69 75 82 91 99 99 100 98 89 99 100 92
80 83 82 79 71 64 66 76 81 85 84 81 59 64 56 54 51 50 49 46 44 40 36 35 37 35 33 33 37 54 83 80 89 94 99 100 100 100 99 99 98 86 98 94
73 70 57 53 68 71 66 68 76 86 89 79 63 65 54 54 51 54 54 53 51 48 46 44 42 41 40 38 41 68 99 98 100 97 97 99 100 100 98 99 94 91 99 98
73 70 59 54 54 74 77 76 74 78 81 88 65 64 62 60 61 62 60 58 55 53 53 51 51 51 46 84 97 100 100 100 100 98 99 87 95 98 96 90 94 79 73 80
70 73 60 54 55 75 83 74 83 87 98 95 81 76 61 67 66 67 66 67 67 68 66 62 60 63 74 88 98 99 96 93 91 94 92 93 93 91 80 96 100 96 92 84
77 82 61 58 56 54 67 93 87 92 99 87 84 72 66 61 63 66 75 79 76 71 64 61 58 54 59 78 84 77 59 64 56 59 83 82 75 82 93 98 100 99 100 97
67 80 77 72 53 53 57 62 89 92 95 99 88 71 69 63 75 81 88 80 83 90 71 67 67 59 54 54 50 41 44 54 57 82 85 88 91 84 82 98 100 99 99 100
78 93 98 90 72 62 64 72 83 91 90 98 97 87 73 68 86 94 93 86 56 50 74 84 68 62 58 57 39 35 46 50 58 60 50 57 74 78 78 100 93 82 82 91
83 85 91 74 69 70 66 63 67 66 96 94 94 83 75 70 70 84 72 61 54 56 68 69 64 55 54 73 46 45 54 52 39 35 36 58 67 72 72 67 59 57 66 85
97 97 91 83 94 94 90 76 66 72 77 80 90 85 74 68 75 74 61 36 41 58 49 62 59 64 57 50 43 46 59 43 42 40 41 55 53 44 44 46 58 67 75 82
98 99 96 94 93 98 97 96 98 90 90 99 97 81 75 74 53 42 28 26 36 44 42 47 51 70 51 46 48 48 49 52 51 52 49 47 44 49 53 50 48 57 68 84
97 94 96 95 82 96 98 77 78 67 89 98 98 71 63 54 36 35 24 32 36 36 30 36 66 52 43 46 38 46 53 56 58 61 58 51 41 46 45 42 38 36 47 57
98 100 99 94 94 96 66 49 43 51 52 46 60 47 32 32 33 38 29 34 28 20 22 24 36 34 39 45 43 41 45 52 61 59 54 46 35 36 30 22 18 16 19 27
97 99 98 95 86 62 66 44 55 57 49 62 64 42 44 52 55 30 30 34 23 26 33 30 39 40 42 49 42 41 52 62 62 58 56 41 35 24 25 13 11 11 11 17
87 96 98 96 97 93 59 52 59 71 65 63 62 57 47 58 69 24 42 45 34 31 32 34 39 36 40 38 44 44 54 62 59 50 29 24 18 8 7 7 8 9 12 16
98 97 95 98 96 95 77 64 68 86 86 85 77 66 61 58 54 40 48 37 32 33 40 41 42 42 41 41 44 49 62 58 51 34 18 15 8 6 6 7 8 9 10 14
93 97 97 98 96 92 79 92 98 96 96 100 100 100 86 77 64 50 42 35 34 34 47 50 49 46 44 38 34 50 56 54 39 16 13 6 6 7 9 9 10 10 14 22
49 45 55 74 93 97 96 92 93 93 96 94 95 99 100 80 68 58 51 49 45 35 40 50 50 49 46 42 42 46 58 47 18 11 11 8 8 9 11 11 12 14 27 40
65 52 68 68 36 42 41 36 38 27 22 32 58 65 81 89 82 72 61 51 48 40 44 55 54 50 50 51 54 59 49 28 14 8 6 7 11 12 14 16 21 33 47 52
30 42 35 62 28 22 14 11 9 13 11 8 10 13 24 49 82 82 78 67 59 58 53 51 54 55 59 64 63 49 23 15 8 7 7 10 15 20 22 24 30 55 63 85
7 21 41 34 19 24 30 26 31 26 17 24 31 16 10 14 37 51 62 85 79 64 52 53 69 68 70 65 37 19 13 10 8 12 17 19 24 36 44 51 45 59 80 99

GFSCGP_700_rhum_180.txt.gz
RH
45 47 47 39 44 45 39 33 33 32 34 39 39 37 39 43 46 39 35 36 42 36 34 33 23 17 17 17 17 23 55 54 55 56 54 53 56 55 53 61 71 76 77 78
55 41 43 55 48 47 46 40 37 37 39 48 48 46 47 47 43 32 33 34 44 35 33 35 27 23 18 19 19 20 26 45 52 54 53 58 55 60 65 60 77 87 92 81
68 51 54 56 55 55 50 48 46 45 46 50 52 43 36 45 37 32 32 33 36 35 34 34 33 23 22 19 20 20 21 28 46 48 50 49 51 58 71 66 76 89 93 94
79 79 68 70 68 63 60 58 60 61 60 53 51 46 41 38 42 39 31 39 38 37 36 36 35 33 24 20 20 21 21 24 32 42 44 49 58 69 72 68 79 90 98 100
71 70 59 65 69 70 66 67 68 65 62 60 54 53 39 42 44 45 39 39 42 41 41 40 40 39 36 33 30 28 25 23 27 34 47 57 62 63 70 78 84 87 99 100
82 77 59 72 75 74 73 70 68 66 63 59 50 53 37 39 44 48 47 42 44 44 44 45 43 41 40 39 38 38 37 37 37 35 45 72 70 76 84 92 95 95 99 98
83 64 67 81 73 69 72 68 59 58 65 55 51 49 41 46 46 47 44 41 41 45 46 46 43 42 39 40 40 38 36 36 49 62 78 97 95 89 94 99 100 100 100 100
60 49 64 56 49 64 71 65 59 61 46 36 57 50 38 49 51 47 46 44 44 43 46 47 46 46 43 44 45 44 42 41 69 99 100 100 98 100 100 100 100 96 99 97
61 58 56 49 55 70 70 70 62 60 58 59 47 40 40 47 50 50 52 51 51 48 47 48 51 49 47 48 50 42 38 44 60 91 97 97 100 98 98 98 99 97 90 85
68 54 60 66 65 74 70 70 72 75 85 70 39 38 36 45 50 50 49 48 50 51 52 54 53 53 53 46 41 37 38 38 50 71 83 89 97 97 92 84 86 67 62 84
74 67 52 62 73 61 79 78 80 74 71 58 51 37 43 46 62 55 56 58 57 57 57 57 58 57 54 48 40 41 50 69 73 83 88 74 37 32 27 22 22 32 64 90
62 81 62 50 51 57 55 56 67 74 60 76 62 56 44 49 55 53 50 53 61 60 65 66 64 58 50 53 53 51 50 49 46 40 32 30 29 27 19 16 40 68 97 98
67 75 65 54 57 68 72 62 58 59 70 65 66 59 46 58 61 61 62 56 59 67 71 65 48 41 59 59 58 57 55 55 52 43 40 46 40 25 15 14 27 43 60 60
73 74 66 49 42 52 75 75 71 72 81 77 72 59 52 62 68 66 63 67 71 76 69 66 56 47 48 60 64 63 61 58 49 45 44 43 37 24 18 25 31 39 47 54
84 95 80 72 66 66 69 76 70 68 67 79 64 67 63 68 84 78 68 75 91 93 88 61 43 67 75 73 73 73 64 54 50 51 42 32 25 22 20 25 34 38 41 40
97 98 87 90 74 83 91 86 68 71 75 90 98 72 74 99 89 84 92 100 100 100 99 100 97 62 71 87 82 79 80 63 56 54 40 38 31 30 28 19 25 38 40 40
97 96 98 97 94 92 99 76 83 88 85 92 99 73 70 98 94 82 86 89 99 97 98 90 70 81 63 91 80 86 80 64 56 54 42 44 36 37 38 36 38 37 34 30
97 99 100 92 76 94 65 55 62 61 65 72 82 85 88 93 100 75 79 84 99 99 97 56 57 66 80 77 92 92 91 59 57 48 48 48 36 34 42 35 31 25 27 20
70 100 99 94 73 73 61 54 71 79 71 75 80 87 95 98 90 68 91 87 87 83 96 94 86 58 37 56 67 89 89 55 47 42 47 34 32 44 58 44 33 26 20 9
81 85 100 97 88 72 62 91 83 87 95 96 100 100 100 100 100 90 94 76 67 69 68 76 74 49 45 45 43 60 71 57 42 35 31 36 43 54 65 60 40 25 18 6
95 100 99 90 93 81 80 74 69 91 90 93 92 97 100 100 100 90 100 100 96 89 87 70 57 53 49 52 38 40 48 53 52 41 37 47 59 64 70 72 60 25 17 8
60 63 69 94 83 76 91 97 92 90 87 68 69 90 90 88 93 97 96 90 98 100 100 93 70 55 44 50 47 46 45 48 50 41 46 51 58 61 63 70 64 26 13 12
61 53 49 50 52 63 73 62 73 18 25 24 22 19 23 47 65 56 86 93 95 94 95 88 75 60 54 50 50 48 45 44 46 43 46 46 52 58 67 69 42 21 14 12
66 67 71 68 58 52 48 54 18 28 67 34 27 33 34 12 17 26 38 66 58 92 95 87 68 55 50 51 51 48 42 44 49 48 41 43 55 69 61 29 15 14 13 10
45 72 80 72 56 44 50 11 51 67 83 69 54 50 42 32 11 12 14 16 44 44 90 92 80 58 58 49 43 44 46 45 44 36 46 62 72 58 35 20 13 9 12 16
57 66 70 60 42 62 46 36 68 95 82 82 70 62 60 53 43 36 24 12 10 18 39 66 95 84 67 58 52 47 49 52 45 48 58 72 62 43 15 8 8 11 20 29

GFSCGP_700_rhum_183.txt.gz
RH
37 47 45 40 38 37 36 34 32 29 29 27 27 28 28 30 34 34 34 36 39 41 43 43 42 31 29 40 59 50 18 19 31 55 67 71 70 60 57 57 58 58 70 72
61 60 52 46 43 43 42 38 35 34 32 32 32 33 34 35 35 36 36 37 40 42 44 45 37 34 30 20 19 34 20 22 58 57 60 65 70 63 59 59 62 68 78 83
57 45 48 52 51 49 48 45 40 37 37 40 42 37 34 31 34 34 37 41 41 44 46 52 39 35 32 25 20 18 20 24 38 60 54 52 56 60 62 63 66 77 74 86
54 49 51 52 54 56 52 46 46 47 51 46 45 40 40 32 33 37 39 33 33 37 38 39 34 34 34 31 24 19 20 22 27 53 46 45 52 59 63 63 62 66 72 75
51 53 60 65 57 56 56 55 53 52 53 52 45 42 27 32 33 36 44 36 32 33 35 36 37 37 36 36 33 26 20 21 21 24 51 56 50 54 60 62 65 69 74 73
77 67 67 62 59 61 59 62 61 59 54 48 39 39 28 26 39 41 49 41 37 38 38 38 39 40 38 38 36 34 34 33 28 25 29 43 56 60 66 69 70 77 87 90
84 76 68 75 66 64 62 61 50 50 50 44 32 35 31 39 38 45 47 42 38 35 35 38 41 42 42 41 39 38 38 38 39 39 40 46 78 73 74 80 84 87 97 100
64 56 66 67 69 53 60 56 46 50 40 27 33 32 32 39 42 42 42 43 43 40 40 37 39 41 41 41 40 38 38 38 39 37 42 59 74 72 80 98 96 100 100 100
45 41 57 58 64 62 51 57 50 47 46 46 39 32 31 39 40 41 39 41 45 42 39 40 41 42 44 46 44 42 41 40 40 41 43 57 97 99 100 96 94 100 100 98
52 47 55 59 62 61 54 50 52 52 65 54 30 26 25 31 55 69 55 40 41 42 41 45 50 50 49 46 42 43 44 38 33 34 40 63 80 91 84 92 94 90 78 32
64 58 42 55 63 49 58 56 56 52 55 53 44 29 27 42 46 55 66 78 83 48 44 52 56 56 53 50 48 51 45 35 36 38 47 65 78 85 60 64 45 22 19 22
64 64 54 48 43 44 44 43 52 66 56 51 52 52 36 38 43 46 58 64 75 91 51 55 60 60 58 57 56 48 42 42 53 54 48 42 36 31 27 25 20 16 21 34
69 76 53 46 44 46 47 49 44 55 64 63 64 57 40 43 43 56 59 61 69 83 97 78 57 63 63 62 55 52 52 50 51 51 49 43 37 33 33 24 12 12 22 32
68 72 60 49 40 45 54 56 57 54 58 58 54 48 40 43 50 51 58 67 74 85 99 94 99 84 58 46 48 56 52 52 57 58 57 42 41 40 32 17 11 12 20 31
75 78 67 61 57 53 52 56 56 56 59 61 64 57 52 47 49 56 60 69 85 86 93 94 98 100 100 96 90 72 59 64 64 53 46 44 38 34 24 16 15 17 23 30
99 97 91 85 73 68 65 67 57 48 48 51 55 48 42 46 54 65 73 78 85 97 99 100 100 93 77 89 99 100 97 81 79 67 49 48 39 29 22 17 14 17 21 20
99 99 99 96 78 78 85 80 71 61 55 52 58 60 62 60 64 69 75 92 83 82 92 98 87 95 100 83 96 98 98 90 82 80 62 52 38 33 28 25 19 18 20 19
98 98 98 98 90 94 65 58 51 53 69 83 86 87 88 78 73 85 91 92 97 100 95 96 100 97 95 98 98 91 97 98 94 89 74 59 43 41 35 25 21 17 18 29
95 98 96 97 90 68 55 60 68 80 75 76 72 72 74 70 70 92 98 98 91 100 96 84 90 94 97 93 88 94 80 86 96 95 82 58 52 45 41 30 39 26 22 31
98 83 96 96 87 81 56 92 83 83 87 83 82 79 77 75 80 90 99 93 85 84 88 74 92 98 91 85 99 97 98 81 64 57 89 62 52 55 42 43 61 59 46 32
98 97 99 87 82 61 62 82 66 87 69 83 82 77 69 81 89 91 90 92 99 100 100 98 98 96 87 76 96 93 83 58 43 68 89 65 54 53 44 53 68 70 65 56
73 82 73 79 71 64 72 78 83 75 73 91 70 67 68 68 66 49 54 67 75 87 96 99 98 98 95 82 88 72 65 53 56 65 82 64 58 50 49 61 69 74 67 64
59 50 49 45 46 76 68 60 56 52 55 61 53 54 64 63 24 13 16 15 31 38 47 63 89 94 98 90 87 76 57 57 61 74 57 60 63 54 57 69 76 72 70 63
51 52 52 54 53 53 52 48 43 38 35 37 45 57 68 76 70 33 11 12 10 11 29 27 57 84 98 88 82 74 66 57 59 56 54 61 67 59 60 66 67 70 69 45
58 66 61 62 55 54 50 41 40 53 63 67 70 74 80 81 83 87 78 60 68 56 16 10 19 47 80 82 78 69 65 56 56 57 54 59 64 64 62 59 62 68 61 21
54 55 58 61 52 50 45 51 62 76 83 86 86 86 86 88 90 90 93 90 66 58 34 22 13 21 56 53 92 78 77 58 56 59 56 53 60 64 61 61 69 66 36 20

GFSCGP_700_rhum_186.txt.gz
RH
10 18 35 23 31 31 30 31 30 29 29 28 29 30 28 27 27 29 29 32 33 33 35 38 41 42 41 40 43 51 58 52 33 26 21 54 82 88 60 66 61 66 76 84
49 52 34 42 38 36 36 35 35 35 34 32 30 31 31 32 30 28 32 33 33 35 37 40 43 44 41 38 41 62 64 42 35 31 24 66 74 78 76 80 78 75 78 79
53 38 49 48 46 44 42 41 40 40 40 38 37 36 33 31 31 33 32 33 33 36 41 44 44 44 40 36 51 82 77 22 27 25 30 52 66 74 74 77 80 78 72 69
48 42 43 42 46 43 44 43 43 45 43 42 40 39 38 32 30 33 35 33 33 31 34 44 42 36 38 35 36 34 30 25 22 24 28 38 66 61 68 66 70 67 66 68
41 49 48 45 43 43 48 49 47 48 49 48 46 43 37 28 28 31 36 37 27 25 30 35 37 36 34 35 38 38 35 33 26 22 26 31 41 53 58 61 63 68 67 72
56 52 47 45 54 54 54 53 52 53 52 52 48 43 34 33 36 36 44 39 28 30 30 28 31 34 35 37 37 38 38 37 36 28 23 24 33 44 53 53 54 60 69 77
81 73 63 61 66 61 56 55 54 52 53 52 37 32 34 35 35 41 41 37 32 25 25 28 29 31 36 38 38 40 39 38 38 37 38 38 37 36 55 55 66 82 87 85
71 67 72 72 71 64 56 55 49 49 45 34 31 32 32 32 34 37 43 46 45 30 29 28 26 26 25 33 39 38 38 39 38 38 38 39 39 40 45 80 100 81 100 100
55 60 49 64 68 65 54 54 50 46 45 44 38 33 32 37 37 43 43 42 39 38 33 31 32 30 28 27 34 40 41 40 39 38 39 39 40 60 75 99 98 96 94 99
59 57 54 55 60 61 56 49 50 49 60 59 37 30 26 33 51 55 55 54 52 46 41 41 37 37 42 43 44 47 41 37 38 41 40 39 46 62 91 94 99 100 99 100
68 59 58 57 55 53 54 55 53 52 51 60 55 38 26 38 41 46 48 56 68 74 76 74 44 36 52 47 46 46 42 43 45 48 36 34 43 73 92 93 91 96 99 95
66 60 53 57 61 51 47 50 53 54 51 46 49 51 36 29 34 44 48 50 57 58 74 78 89 59 46 55 50 53 49 48 50 49 39 42 53 65 67 56 31 28 26 22
66 84 60 58 58 53 55 51 45 48 56 66 67 53 42 38 43 43 44 48 53 61 60 75 76 86 66 65 62 57 58 57 55 46 41 42 45 43 39 33 29 26 18 15
90 77 66 59 52 46 57 57 48 42 47 54 62 61 42 53 49 44 44 47 53 54 70 78 90 86 100 98 81 68 64 61 54 53 52 52 52 48 36 35 33 24 8 8
91 84 67 62 58 55 51 52 51 56 55 55 53 60 52 55 56 52 47 42 48 56 55 73 82 79 88 95 97 100 98 70 74 58 59 59 46 38 37 37 30 17 10 15
98 96 78 79 70 63 63 65 60 53 50 52 60 69 62 51 46 50 52 52 58 62 72 66 87 94 86 95 95 84 96 99 100 98 86 76 52 44 40 33 24 19 17 27
99 94 99 95 85 81 87 71 75 66 58 56 57 60 56 58 61 61 62 64 63 68 77 87 78 88 98 100 100 100 99 96 99 99 98 89 68 52 46 30 22 26 27 21
88 94 100 97 94 95 62 58 60 62 63 72 72 78 82 78 71 68 66 72 73 78 83 81 83 70 80 100 97 93 96 99 99 100 99 97 93 65 52 33 28 24 22 20
100 100 98 96 89 78 61 62 63 82 86 89 95 85 83 86 67 82 68 65 74 77 84 88 82 79 86 92 100 96 97 99 99 94 90 98 96 92 63 40 38 32 26 26
97 98 98 97 96 83 63 67 61 72 83 83 82 81 75 67 57 69 67 69 80 84 83 87 93 93 88 84 69 63 77 82 74 88 100 99 99 98 91 61 47 37 28 24
98 98 96 97 97 92 66 69 54 72 70 77 79 76 72 67 65 55 58 55 61 74 82 85 90 85 87 89 80 59 51 62 65 81 89 99 99 96 87 68 54 46 43 54
92 94 93 91 79 79 67 76 78 73 74 66 65 63 62 59 54 50 49 41 33 24 22 20 22 34 65 58 69 77 64 62 70 77 85 85 94 88 98 97 65 57 52 62
93 81 72 81 85 88 85 76 63 59 55 52 49 42 40 42 42 26 14 10 11 16 15 10 7 7 31 47 55 56 61 70 62 75 75 75 69 80 91 98 91 68 58 71
62 53 53 53 50 51 53 54 55 52 44 39 44 54 40 47 56 61 54 40 38 40 56 62 53 40 13 36 49 51 55 57 73 71 76 68 69 68 89 98 95 91 60 66
56 54 56 58 55 56 56 53 48 46 46 52 49 67 70 70 76 77 79 81 81 88 85 83 83 75 64 20 22 56 37 48 82 81 74 70 65 71 90 90 81 81 70 87
51 59 64 63 58 57 54 53 48 50 58 74 79 82 90 92 92 97 96 91 86 97 92 86 89 80 71 59 30 20 50 37 73 87 78 73 67 72 76 72 77 88 95 93

GFSCGP_700_rhum_189.txt.gz
RH
8 13 10 6 6 8 16 22 19 23 22 29 32 25 27 28 31 28 21 21 23 30 32 33 35 36 36 37 40 40 40 44 48 51 56 64 65 31 52 84 90 90 89 80
21 15 7 11 9 18 31 36 35 36 37 36 39 38 37 34 28 28 29 28 31 32 34 34 36 36 37 39 41 42 42 42 49 58 62 63 62 35 32 41 52 68 85 79
14 11 18 21 21 36 42 40 40 41 42 41 43 41 40 34 31 33 31 33 35 35 36 35 34 34 36 42 42 41 41 39 51 48 56 52 53 34 42 43 70 83 82 87
29 23 30 32 44 45 47 46 44 44 44 47 47 50 48 37 28 31 34 34 33 30 31 26 29 34 38 43 39 39 36 34 36 43 49 46 30 28 36 74 81 87 79 81
28 40 41 34 32 47 47 44 45 45 46 48 52 51 48 37 30 28 31 33 33 30 25 26 31 38 40 41 35 36 40 41 41 40 39 37 32 26 27 43 52 60 79 78
50 43 42 42 46 47 44 46 52 53 50 59 54 52 48 33 39 33 31 30 34 25 22 23 24 27 31 34 37 36 36 38 39 38 36 36 36 27 26 30 38 43 56 62
38 38 39 52 52 48 54 57 58 66 69 64 50 47 47 38 40 35 35 38 36 33 31 27 23 24 22 21 24 31 36 38 39 39 38 38 38 40 42 36 37 45 59 60
46 52 41 36 45 50 56 61 60 83 74 54 44 42 37 38 41 40 37 41 39 35 34 25 26 27 22 24 22 17 18 28 36 37 39 38 38 39 43 48 80 68 90 90
63 68 58 52 48 53 62 64 58 54 48 56 45 37 36 36 38 41 42 44 42 39 35 38 36 30 32 32 20 23 29 40 43 42 38 36 35 38 40 86 49 100 98 97
70 69 57 58 58 65 62 63 58 58 70 75 50 44 32 45 44 50 49 47 53 54 49 49 46 47 45 37 33 26 36 42 46 42 41 37 40 40 38 44 94 93 100 98
82 73 60 59 62 73 74 67 56 62 54 75 70 45 34 44 54 46 50 63 69 67 72 70 76 78 66 54 40 43 34 46 53 49 48 46 50 44 38 48 68 100 98 99
75 80 73 59 58 67 68 70 63 70 62 56 56 56 38 44 42 42 44 45 42 46 55 56 60 78 79 72 55 51 56 40 50 52 54 53 54 48 50 56 70 85 80 49
75 94 90 70 71 56 58 51 54 60 54 56 67 55 36 32 43 48 51 50 49 45 46 51 59 92 91 86 77 55 55 59 58 60 60 60 57 50 53 49 44 39 33 30
99 100 87 82 78 79 71 64 55 55 56 62 63 58 49 47 50 50 55 51 48 46 46 45 53 71 83 92 91 79 59 56 53 67 65 61 58 53 50 47 42 38 36 31
100 100 99 75 63 77 95 91 74 68 77 71 69 58 46 52 56 62 60 58 53 52 49 49 47 40 46 65 72 82 78 55 59 78 68 69 74 66 58 55 51 53 49 40
98 99 100 92 75 75 75 74 68 71 67 60 59 54 53 58 63 62 58 55 56 57 56 54 59 59 56 53 52 78 94 94 88 73 98 95 96 84 75 74 61 46 60 41
100 99 99 96 88 85 90 65 52 42 43 65 63 62 57 55 58 59 60 60 60 62 62 62 66 68 67 63 60 68 87 99 96 85 99 99 98 99 98 98 80 43 34 28
99 98 99 98 96 97 61 55 58 60 58 60 61 65 63 62 68 70 74 75 76 80 77 84 82 82 87 80 80 80 81 83 97 99 99 99 99 99 98 95 85 52 33 33
91 100 98 98 93 72 63 66 62 64 68 68 71 76 74 74 77 81 85 86 77 67 70 80 92 80 67 78 92 89 82 85 90 99 100 100 97 98 94 97 94 55 43 30
78 80 96 98 98 89 70 71 66 61 68 68 69 72 70 64 62 70 68 68 68 70 64 56 60 62 65 72 75 80 86 98 99 94 70 72 99 99 93 98 95 87 48 42
99 100 99 98 96 87 80 69 72 64 71 69 72 74 71 64 60 62 61 56 51 47 44 39 30 29 31 27 28 35 41 59 73 75 70 64 77 93 98 100 99 88 74 56
94 99 96 99 97 93 68 70 66 65 67 68 68 65 63 60 55 50 47 42 36 24 14 8 8 7 7 8 10 10 18 29 33 46 67 74 84 90 100 99 99 97 90 77
98 79 78 74 73 75 78 76 74 76 77 67 60 55 53 49 43 39 34 22 10 8 9 13 26 36 26 22 18 23 11 32 44 58 42 54 70 87 96 91 98 97 97 98
87 75 80 80 77 80 78 68 63 62 59 56 50 41 39 38 30 20 10 7 9 23 40 58 87 88 85 70 72 52 45 50 78 77 34 45 61 69 88 96 96 97 98 95
74 67 69 62 55 64 53 52 51 49 47 38 33 40 37 36 28 18 22 42 52 47 43 54 80 81 75 75 75 79 61 57 62 82 64 44 51 73 86 84 86 93 98 96
62 62 58 55 52 53 46 49 46 45 45 46 46 35 35 51 62 52 59 54 48 40 39 53 64 74 64 60 60 73 80 72 65 36 64 70 68 72 86 84 84 85 96 98

GFSCGP_700_rhum_195.txt.gz
RH
12 13 9 6 8 8 8 8 8 7 8 7 6 8 16 16 14 13 14 17 18 18 19 21 25 28 28 30 32 35 36 38 40 41 42 45 45 52 67 57 55 52 54 37
14 13 9 9 9 10 9 9 9 7 7 8 7 12 14 17 18 20 20 22 26 25 24 24 26 28 30 30 34 35 39 41 42 42 41 42 42 52 59 54 46 47 57 40
11 10 12 10 10 12 10 11 8 9 8 12 32 35 24 20 17 15 17 24 27 30 29 33 32 31 34 34 37 40 41 43 44 44 44 43 40 51 52 52 46 40 34 32
14 13 12 12 16 16 13 9 11 17 24 40 44 52 45 28 25 20 19 30 30 33 33 35 30 32 37 38 40 40 40 42 39 45 45 42 41 51 51 45 42 38 38 44
14 13 11 11 9 10 14 14 26 36 44 50 54 53 43 31 32 23 26 32 32 33 38 35 29 27 27 28 31 33 33 32 32 35 37 37 41 49 48 49 55 54 66 55
18 19 17 16 19 22 18 24 33 49 57 64 55 53 37 30 26 26 28 35 34 37 40 37 30 22 26 24 25 24 25 26 26 27 32 35 39 53 88 100 100 94 74 42
25 19 22 21 33 33 46 58 61 68 73 67 42 47 42 36 33 31 29 35 39 43 41 28 24 30 21 20 20 20 21 24 25 21 22 23 32 55 62 78 69 59 50 43
33 34 19 20 17 33 38 43 49 74 77 45 43 50 41 36 34 29 30 38 41 40 29 32 33 26 29 32 29 25 27 30 26 22 18 18 22 29 35 40 45 49 83 41
28 30 23 19 18 18 38 58 46 48 55 63 48 44 40 43 41 35 36 41 36 33 38 37 35 27 34 37 33 29 34 34 33 30 26 27 37 42 45 47 42 42 45 49
29 41 38 36 42 42 36 35 57 63 76 72 57 54 49 44 42 38 40 44 42 45 42 40 36 34 40 41 38 36 34 29 30 30 31 28 26 32 48 49 47 47 48 48
28 40 46 58 54 47 48 53 53 53 57 77 72 51 42 43 45 40 45 53 52 50 48 44 42 42 41 37 34 33 29 29 32 32 31 27 28 33 38 47 54 56 55 51
36 48 52 56 62 61 58 52 52 62 70 62 54 50 45 41 46 50 57 56 54 56 52 46 42 40 37 35 37 34 28 30 32 36 36 37 34 45 49 41 56 58 56 58
61 65 68 75 73 68 71 71 71 60 59 60 71 59 50 44 56 63 61 62 57 52 49 49 45 41 39 37 38 40 43 41 42 44 43 38 34 40 44 45 44 44 62 62
73 69 69 69 62 72 75 68 70 75 71 66 63 61 59 56 63 59 58 58 57 55 52 44 40 43 46 46 48 48 49 51 54 54 51 53 57 52 49 41 46 58 69 69
89 94 88 77 79 84 80 73 72 75 72 71 66 64 59 60 59 60 65 65 60 55 50 48 52 51 48 47 50 54 57 62 69 65 56 62 70 77 65 54 61 86 75 68
99 100 100 99 97 100 96 85 72 73 71 76 70 65 59 59 61 62 65 63 62 58 54 54 58 55 51 54 54 58 61 66 67 68 78 83 98 98 99 96 90 73 60 65
100 100 100 98 99 100 99 86 80 78 75 81 87 74 64 62 70 68 74 70 67 65 57 53 57 59 60 60 60 62 65 72 79 78 76 84 93 98 98 99 92 99 76 59
99 99 100 97 100 97 94 96 86 81 81 86 97 94 82 72 72 85 93 84 80 77 69 83 69 64 63 64 68 70 69 66 57 51 52 52 52 53 57 55 62 71 64 95
99 100 99 98 98 98 96 92 92 96 94 93 88 92 89 94 97 90 66 55 82 84 82 82 82 71 64 59 52 48 50 52 50 45 40 32 29 30 33 37 70 84 98 98
100 100 100 99 98 94 65 70 82 97 98 98 98 90 97 96 89 59 54 85 94 89 84 76 62 54 50 46 36 27 18 10 7 6 6 5 5 5 5 8 13 28 60 85
98 99 99 99 98 84 67 68 76 98 64 54 56 54 49 44 50 67 85 83 80 78 68 58 50 44 38 22 10 7 6 5 5 7 8 10 12 10 6 8 24 18 27 46
84 98 98 99 98 92 70 65 70 57 53 47 40 42 50 74 81 80 90 84 71 62 54 50 43 32 17 9 6 5 6 11 12 15 18 20 19 18 18 15 25 62 61 66
99 88 90 90 76 73 67 64 57 51 49 47 49 56 67 78 83 81 73 63 56 53 49 39 26 13 7 5 7 10 13 16 19 21 24 29 27 27 22 36 34 60 81 94
90 94 94 84 76 67 62 64 65 63 59 63 65 64 64 63 62 59 58 57 55 44 28 13 7 6 4 10 17 19 19 24 24 23 25 34 48 44 42 45 63 48 77 100
85 82 75 72 73 74 67 63 70 71 72 72 69 67 64 63 65 65 54 41 26 13 7 6 10 13 13 16 15 18 24 28 23 22 23 30 44 45 48 52 55 74 63 55
86 81 83 76 72 74 71 69 70 73 73 72 72 72 73 63 52 45 32 21 14 7 10 18 18 16 14 13 15 25 32 30 30 30 32 36 33 36 44 54 61 73 82 64